Tracking 29892 objects as of 21-Nov-2024
HD Live streaming from Space Station
objects crossing your sky now

STARLINK-30566

Track STARLINK-30566 now!
10-day predictions
STARLINK-30566 is classified as:


NORAD ID: 58054
Int'l Code: 2023-158D
Perigee: 564.7 km
Apogee: 568.1 km
Inclination: 43.0 °
Period: 95.8 minutes
Semi major axis: 6937 km
RCS: Unknown
Launch date: October 13, 2023
Source: United States (US)
Launch site: AIR FORCE EASTERN TEST RANGE (AFETR)
Your satellite tracking list
Your tracking list is empty




NASA's NSSDC Master Catalog

Two Line Element Set (TLE):
1 58054U 23158D   24325.39782716 -.00113407  00000-0 -85282-2 0  9995
2 58054  43.0009  87.6664 0002454 293.4708  66.5876 15.02481064 62181
Source of the keplerian elements: AFSPC